QTR64V OTHH-YPPH

Flight info

Callsign QTR64V
Flight time N/A
Altitude 33000
Route BUNDU B415 SIXIV N318 TOLDA P570 KITAL L894 BIBGO DCT SOLIH/N0489F350 DCT 07S080E 11S083E 16S087E 19S090E/N0481F370 24S096E 28S103E 30S108E DCT OPEGA T12 PH
Aircraft B77W/H-SDE1E2E3FGHIJ2J3J4J5M1RWXY/LB1D1

Departure

Time N/A
Airport Hamad International Airport (OTHH)

Arrival

Time 2026-04-28 08:22
Airport Perth International Airport (YPPH)
Time Latitude Longitude Altitude Speed Heading
2026-04-28 07:51 -31.38551 113.01555 35038 ft 501 kts 107°
2026-04-28 07:52 -31.40510 113.09304 35046 ft 498 kts 107°
2026-04-28 07:52 -31.42469 113.17075 35047 ft 499 kts 107°
2026-04-28 07:53 -31.44416 113.24819 35036 ft 499 kts 107°
2026-04-28 07:53 -31.46372 113.32622 35044 ft 500 kts 107°
2026-04-28 07:54 -31.48146 113.40459 35049 ft 500 kts 103°
2026-04-28 07:54 -31.49613 113.48370 35049 ft 499 kts 103°
2026-04-28 07:55 -31.51063 113.56255 35046 ft 498 kts 102°
2026-04-28 07:55 -31.52513 113.64183 35043 ft 498 kts 102°
2026-04-28 07:56 -31.53969 113.72169 35035 ft 498 kts 102°
2026-04-28 07:56 -31.55406 113.80090 35039 ft 498 kts 102°
2026-04-28 07:57 -31.56844 113.88044 35033 ft 496 kts 102°
2026-04-28 07:57 -31.57557 113.92001 34902 ft 492 kts 101°
2026-04-28 07:57 -31.58262 113.95921 34215 ft 497 kts 101°
2026-04-28 07:58 -31.58968 113.99853 33209 ft 506 kts 101°
2026-04-28 07:58 -31.59695 114.03908 32231 ft 511 kts 101°
2026-04-28 07:58 -31.60420 114.07965 31304 ft 514 kts 101°
2026-04-28 07:58 -31.61153 114.12071 30484 ft 513 kts 101°
2026-04-28 07:59 -31.61880 114.16149 29988 ft 506 kts 101°
2026-04-28 07:59 -31.62595 114.20167 29422 ft 499 kts 101°
2026-04-28 07:59 -31.63296 114.24111 28851 ft 493 kts 101°
2026-04-28 07:59 -31.63993 114.28049 28275 ft 488 kts 101°
2026-04-28 08:00 -31.64678 114.31922 27711 ft 483 kts 101°
2026-04-28 08:00 -31.65349 114.35723 27152 ft 478 kts 101°
2026-04-28 08:00 -31.66016 114.39513 26586 ft 473 kts 101°
2026-04-28 08:00 -31.66673 114.43252 26027 ft 468 kts 100°
2026-04-28 08:01 -31.67330 114.46992 25458 ft 464 kts 100°
2026-04-28 08:01 -31.67971 114.50652 24895 ft 460 kts 100°
2026-04-28 08:01 -31.68612 114.54321 24326 ft 456 kts 100°
2026-04-28 08:01 -31.69237 114.57903 23766 ft 453 kts 100°
2026-04-28 08:02 -31.69871 114.61537 23196 ft 449 kts 100°
2026-04-28 08:02 -31.70484 114.65063 22657 ft 446 kts 99°
2026-04-28 08:02 -31.71105 114.68639 22087 ft 443 kts 99°
2026-04-28 08:02 -31.71716 114.72163 21521 ft 440 kts 99°
2026-04-28 08:03 -31.72318 114.75640 20956 ft 438 kts 99°
2026-04-28 08:03 -31.72922 114.79142 20384 ft 435 kts 99°
2026-04-28 08:03 -31.73517 114.82587 19821 ft 432 kts 99°
2026-04-28 08:03 -31.74107 114.86018 19251 ft 430 kts 99°
2026-04-28 08:04 -31.74699 114.89459 18678 ft 427 kts 99°
2026-04-28 08:04 -31.75277 114.92825 18119 ft 425 kts 99°
2026-04-28 08:04 -31.75863 114.96252 17542 ft 423 kts 99°
2026-04-28 08:04 -31.76434 114.99587 16975 ft 421 kts 100°
2026-04-28 08:05 -31.77004 115.02927 16403 ft 419 kts 100°
2026-04-28 08:05 -31.77578 115.06293 15823 ft 416 kts 100°
2026-04-28 08:05 -31.78138 115.09583 15254 ft 414 kts 100°
2026-04-28 08:05 -31.78698 115.12879 14684 ft 411 kts 100°
2026-04-28 08:06 -31.79252 115.16144 14124 ft 408 kts 100°
2026-04-28 08:06 -31.79805 115.19414 13551 ft 405 kts 100°
2026-04-28 08:06 -31.80344 115.22603 12990 ft 402 kts 100°
2026-04-28 08:06 -31.80891 115.25839 12435 ft 399 kts 101°
2026-04-28 08:07 -31.81457 115.29015 11868 ft 395 kts 104°
2026-04-28 08:07 -31.82178 115.32077 11317 ft 392 kts 105°
2026-04-28 08:07 -31.82916 115.35136 10762 ft 388 kts 105°
2026-04-28 08:07 -31.83641 115.38170 10461 ft 376 kts 105°
2026-04-28 08:08 -31.84329 115.41067 10381 ft 360 kts 104°
2026-04-28 08:08 -31.84983 115.43834 10266 ft 346 kts 104°
2026-04-28 08:08 -31.85610 115.46500 10120 ft 334 kts 104°
2026-04-28 08:08 -31.86213 115.49082 9964 ft 323 kts 104°
2026-04-28 08:09 -31.86800 115.51636 9525 ft 322 kts 101°
2026-04-28 08:09 -31.86992 115.54201 9289 ft 309 kts 88°
2026-04-28 08:09 -31.86928 115.56661 8991 ft 303 kts 86°
2026-04-28 08:09 -31.86822 115.59138 8346 ft 304 kts 85°
2026-04-28 08:10 -31.86713 115.61585 7975 ft 293 kts 85°
2026-04-28 08:10 -31.86610 115.63934 7572 ft 285 kts 85°
2026-04-28 08:10 -31.86510 115.66224 7213 ft 277 kts 85°
2026-04-28 08:10 -31.86414 115.68439 6886 ft 270 kts 85°
2026-04-28 08:11 -31.86313 115.70713 6579 ft 281 kts 85°
2026-04-28 08:11 -31.86212 115.72999 6212 ft 281 kts 85°
2026-04-28 08:11 -31.86111 115.75288 5859 ft 281 kts 85°
2026-04-28 08:11 -31.86009 115.77589 5516 ft 280 kts 85°
2026-04-28 08:12 -31.85889 115.79859 5173 ft 279 kts 82°
2026-04-28 08:12 -31.85232 115.81929 4795 ft 271 kts 52°
2026-04-28 08:12 -31.83995 115.83546 4514 ft 264 kts 45°
2026-04-28 08:12 -31.82767 115.85129 4216 ft 260 kts 51°
2026-04-28 08:13 -31.81723 115.86864 3921 ft 258 kts 58°
2026-04-28 08:13 -31.80853 115.88708 3596 ft 258 kts 65°
2026-04-28 08:13 -31.80242 115.90667 3287 ft 258 kts 73°
2026-04-28 08:13 -31.79833 115.92721 3024 ft 255 kts 79°
2026-04-28 08:14 -31.79763 115.94767 2981 ft 253 kts 100°
2026-04-28 08:14 -31.80483 115.96646 2977 ft 256 kts 127°
2026-04-28 08:14 -31.81843 115.97947 2984 ft 244 kts 146°
2026-04-28 08:14 -31.83300 115.98854 2971 ft 233 kts 161°
2026-04-28 08:15 -31.84879 115.98984 2982 ft 227 kts 185°
2026-04-28 08:15 -31.86419 115.98644 2834 ft 224 kts 200°
2026-04-28 08:15 -31.87683 115.97567 2538 ft 226 kts 234°
2026-04-28 08:15 -31.88207 115.95898 2355 ft 219 kts 269°
2026-04-28 08:16 -31.88016 115.94170 2209 ft 210 kts 283°
2026-04-28 08:16 -31.87716 115.92503 2060 ft 203 kts 287°
2026-04-28 08:16 -31.87015 115.91158 1975 ft 185 kts 328°
2026-04-28 08:16 -31.85865 115.90710 1978 ft 175 kts
2026-04-28 08:17 -31.84656 115.90890 1987 ft 173 kts 13°
2026-04-28 08:17 -31.83480 115.91118 1988 ft 172 kts 13°
2026-04-28 08:17 -31.82291 115.91351 1984 ft 171 kts 13°
2026-04-28 08:17 -31.81118 115.91582 1985 ft 170 kts 16°
2026-04-28 08:18 -31.80126 115.92244 1971 ft 163 kts 57°
2026-04-28 08:18 -31.79834 115.93493 1971 ft 163 kts 98°
2026-04-28 08:18 -31.80282 115.94694 1984 ft 161 kts 118°
2026-04-28 08:18 -31.80852 115.95804 1922 ft 160 kts 118°
2026-04-28 08:19 -31.81428 115.96915 1799 ft 157 kts 118°
2026-04-28 08:19 -31.82113 115.97924 1620 ft 158 kts 136°
2026-04-28 08:19 -31.82969 115.98727 1552 ft 155 kts 139°
2026-04-28 08:19 -31.83897 115.99442 1517 ft 163 kts 161°
2026-04-28 08:20 -31.85017 115.99328 1484 ft 171 kts 206°
2026-04-28 08:20 -31.86047 115.98561 1420 ft 174 kts 197°
2026-04-28 08:20 -31.87183 115.98515 1185 ft 163 kts 163°
2026-04-28 08:20 -31.88297 115.98480 958 ft 161 kts 200°
2026-04-28 08:21 -31.89249 115.97892 675 ft 151 kts 201°
2026-04-28 08:21 -31.90212 115.97563 527 ft 143 kts 186°
2026-04-28 08:21 -31.91203 115.97332 404 ft 145 kts 190°
2026-04-28 08:21 -31.92176 115.97045 215 ft 146 kts 190°
2026-04-28 08:22 -31.93171 115.96754 77 ft 144 kts 190°
2026-04-28 08:22 -31.94030 115.96506 79 ft 108 kts 194°
2026-04-28 08:22 -31.94620 115.96336 82 ft 65 kts 193°
2026-04-28 08:22 -31.94919 115.96247 84 ft 22 kts 194°
2026-04-28 08:23 -31.95022 115.96219 83 ft 8 kts 178°
2026-04-28 08:23 -31.95066 115.96253 84 ft 7 kts 119°
2026-04-28 08:23 -31.95085 115.96304 85 ft 5 kts 109°
2026-04-28 08:23 -31.95095 115.96344 86 ft 5 kts 107°
2026-04-28 08:24 -31.95108 115.96400 87 ft 8 kts 104°
2026-04-28 08:24 -31.95125 115.96474 88 ft 10 kts 104°
2026-04-28 08:24 -31.95085 115.96550 87 ft 14 kts 19°
2026-04-28 08:24 -31.94976 115.96583 87 ft 16 kts 14°
2026-04-28 08:25 -31.94867 115.96615 86 ft 16 kts 13°
2026-04-28 08:25 -31.94755 115.96647 84 ft 16 kts 14°
2026-04-28 08:25 -31.94643 115.96680 83 ft 16 kts 13°
2026-04-28 08:26 -31.94436 115.96738 82 ft 14 kts 13°
2026-04-28 08:26 -31.94340 115.96765 82 ft 13 kts 13°
2026-04-28 08:26 -31.94246 115.96793 81 ft 14 kts 14°
2026-04-28 08:26 -31.94148 115.96823 79 ft 14 kts 14°
2026-04-28 08:27 -31.94054 115.96851 79 ft 13 kts 14°
2026-04-28 08:27 -31.93964 115.96877 78 ft 13 kts 14°
2026-04-28 08:27 -31.93915 115.96950 77 ft 12 kts 102°
2026-04-28 08:27 -31.93938 115.97039 79 ft 9 kts 127°
2026-04-28 08:28 -31.93991 115.97050 80 ft 7 kts 193°
2026-04-28 08:28 -31.94029 115.97038 80 ft 0 kts 193°